This is the latest recevied weather packets stored in our database for station/object KU9TRY. If no packets are shown the sender has not sent any weather packets the latest 10 day(s).
| Time | Temp. | Humidity | Pressure | Rain* | Wind** | Luminosity | Snow |
|---|---|---|---|---|---|---|---|
| 1777656709 | 20° C | 39% | 1015.3 hPa | 0 mm | - | 533 W/m² | - |
| 1777656405 | 20° C | 41% | 1015.4 hPa | 0 mm | - | 614 W/m² | - |
| 1777656100 | 20° C | 39% | 1015.4 hPa | 0 mm | - | 653 W/m² | - |
| 1777655796 | 20° C | 38% | 1015.3 hPa | 0 mm | - | 729 W/m² | - |
| 1777655494 | 19.44° C | 39% | 1015.5 hPa | 0 mm | - | 748 W/m² | - |
| 1777655191 | 19.44° C | 41% | 1015.5 hPa | 0 mm | - | 743 W/m² | - |
| 1777654887 | 19.44° C | 42% | 1015.5 hPa | 0 mm | - | 785 W/m² | - |
| 1777654585 | 19.44° C | 40% | 1015.7 hPa | 0 mm | - | 810 W/m² | - |
| 1777654282 | 19.44° C | 38% | 1015.5 hPa | 0 mm | - | 853 W/m² | - |
| 1777653980 | 19.44° C | 38% | 1015.7 hPa | 0 mm | - | 782 W/m² | - |
| 1777653677 | 19.44° C | 39% | 1015.6 hPa | 0 mm | - | 939 W/m² | - |
| 1777653373 | 19.44° C | 39% | 1015.5 hPa | 0 mm | - | 772 W/m² | - |
| 1777653070 | 18.89° C | 42% | 1015.5 hPa | 0 mm | - | 880 W/m² | - |
| 1777652766 | 19.44° C | 38% | 1015.6 hPa | 0 mm | - | 906 W/m² | - |
| 1777652463 | 20° C | 36% | 1015.7 hPa | 0 mm | - | 936 W/m² | - |
| 1777652161 | 20° C | 41% | 1015.5 hPa | 0 mm | - | 912 W/m² | - |
| 1777651857 | 19.44° C | 44% | 1015.8 hPa | 0 mm | - | 901 W/m² | - |
| 1777651554 | 19.44° C | 43% | 1015.7 hPa | 0 mm | - | 946 W/m² | - |
| 1777651251 | 18.89° C | 44% | 1016 hPa | 0 mm | - | 932 W/m² | - |
| 1777650947 | 18.89° C | 40% | 1015.9 hPa | 0 mm | - | 922 W/m² | - |
| 1777650644 | 18.89° C | 44% | 1015.9 hPa | 0 mm | - | 912 W/m² | - |
| 1777650342 | 18.33° C | 43% | 1016 hPa | 0 mm | - | 900 W/m² | - |
| 1777650039 | 18.89° C | 40% | 1016 hPa | 0 mm | - | 890 W/m² | - |
| 1777649736 | 18.33° C | 41% | 1016 hPa | 0 mm | - | 881 W/m² | - |
| 1777649433 | 18.33° C | 44% | 1016 hPa | 0 mm | - | 859 W/m² | - |
* Rain latest hour (hover to see other rain measurements)
** Current wind speed in m/s (hover to see current wind gust speed)